TimeMST,TemperatureF,Dew PointF,Humidity,Sea Level PressureIn,VisibilityMPH,Wind Direction,Wind SpeedMPH,Gust SpeedMPH,PrecipitationIn,Events,Conditions,WindDirDegrees,DateUTC
12:56 AM,25.0,12.9,60,30.34,10.0,Calm,Calm,-,N/A,,Clear,0,2014-01-16 07:56:00
1:56 AM,21.9,10.9,63,30.35,10.0,SE,3.5,-,N/A,,Clear,140,2014-01-16 08:56:00
2:56 AM,18.0,10.0,71,30.36,10.0,SW,3.5,-,N/A,,Clear,230,2014-01-16 09:56:00
3:56 AM,19.9,10.9,68,30.34,10.0,ESE,3.5,-,N/A,,Clear,120,2014-01-16 10:56:00
4:56 AM,19.9,12.0,71,30.34,10.0,ESE,3.5,-,N/A,,Clear,120,2014-01-16 11:56:00
5:56 AM,17.1,9.0,71,30.38,10.0,Calm,Calm,-,N/A,,Clear,0,2014-01-16 12:56:00
6:56 AM,18.0,10.0,71,30.43,10.0,SE,3.5,-,N/A,,Clear,130,2014-01-16 13:56:00
8:56 AM,25.0,12.0,58,30.44,10.0,Calm,Calm,-,N/A,,Clear,0,2014-01-16 15:56:00
9:56 AM,35.1,16.0,46,30.43,10.0,Variable,3.5,-,N/A,,Clear,0,2014-01-16 16:56:00
10:56 AM,41.0,16.0,36,30.40,10.0,WNW,5.8,-,N/A,,Clear,300,2014-01-16 17:56:00
11:56 AM,45.0,16.0,31,30.39,10.0,NNW,5.8,-,N/A,,Clear,330,2014-01-16 18:56:00
12:56 PM,48.9,15.1,26,30.33,10.0,WNW,9.2,-,N/A,,Clear,300,2014-01-16 19:56:00
1:56 PM,53.1,12.9,20,30.29,10.0,WNW,8.1,-,N/A,,Clear,290,2014-01-16 20:56:00
2:56 PM,55.9,10.9,17,30.28,10.0,NW,6.9,-,N/A,,Clear,320,2014-01-16 21:56:00
3:56 PM,57.0,10.0,15,30.27,10.0,NW,9.2,-,N/A,,Clear,310,2014-01-16 22:56:00
4:56 PM,55.0,10.9,17,30.28,10.0,WNW,9.2,-,N/A,,Clear,300,2014-01-16 23:56:00
5:56 PM,41.0,10.0,28,30.34,10.0,West,8.1,-,N/A,,Clear,280,2014-01-17 00:56:00
6:56 PM,39.0,10.0,30,30.35,10.0,WNW,10.4,-,N/A,,Clear,290,2014-01-17 01:56:00
7:56 PM,39.0,9.0,29,30.37,10.0,WNW,9.2,-,N/A,,Clear,300,2014-01-17 02:56:00
8:56 PM,30.9,8.1,38,30.38,10.0,Calm,Calm,-,N/A,,Clear,0,2014-01-17 03:56:00
9:56 PM,35.1,9.0,34,30.35,10.0,NW,4.6,-,N/A,,Clear,310,2014-01-17 04:56:00
10:56 PM,27.0,9.0,47,30.37,10.0,SSW,9.2,-,N/A,,Clear,210,2014-01-17 05:56:00
11:56 PM,25.0,9.0,51,30.37,10.0,WSW,8.1,-,N/A,,Clear,240,2014-01-17 06:56:00